TimeCDT,TemperatureF,Dew PointF,Humidity,Sea Level PressureIn,VisibilityMPH,Wind Direction,Wind SpeedMPH,Gust SpeedMPH,PrecipitationIn,Events,Conditions,WindDirDegrees,DateUTC
12:15 AM,39.7,37.8,93,30.36,10.0,SSE,4.6,-,N/A,,Clear,160,2013-09-17 05:15:00
12:35 AM,38.5,37.0,95,30.36,10.0,SSE,4.6,-,N/A,,Clear,160,2013-09-17 05:35:00
12:55 AM,38.5,37.4,96,30.36,10.0,Calm,Calm,-,N/A,,Clear,0,2013-09-17 05:55:00
1:15 AM,38.5,37.8,97,30.36,10.0,Calm,Calm,-,N/A,,Clear,0,2013-09-17 06:15:00
1:35 AM,38.1,37.4,97,30.36,10.0,Calm,Calm,-,N/A,,Clear,0,2013-09-17 06:35:00
1:55 AM,38.1,37.9,99,30.36,5.0,Calm,Calm,-,N/A,,Clear,0,2013-09-17 06:55:00
2:15 AM,36.9,36.5,99,30.35,10.0,Calm,Calm,-,N/A,,Clear,0,2013-09-17 07:15:00
2:35 AM,36.5,36.0,98,30.35,10.0,Calm,Calm,-,N/A,,Clear,0,2013-09-17 07:35:00
2:55 AM,36.0,35.6,99,30.36,1.0,Calm,Calm,-,N/A,,Mist,0,2013-09-17 07:55:00
3:15 AM,35.8,35.8,100,30.35,0.5,Calm,Calm,-,N/A,Fog,Fog,0,2013-09-17 08:15:00
3:35 AM,36.7,36.7,100,30.35,0.8,Calm,Calm,-,N/A,,Mist,0,2013-09-17 08:35:00
3:55 AM,34.3,34.3,100,30.34,1.5,Calm,Calm,-,N/A,,Mist,0,2013-09-17 08:55:00
4:15 AM,33.3,33.1,99,30.35,10.0,Calm,Calm,-,N/A,,Clear,0,2013-09-17 09:15:00
4:35 AM,33.6,33.4,99,30.35,2.5,Calm,Calm,-,N/A,,Mostly Cloudy,0,2013-09-17 09:35:00
4:55 AM,32.4,32.2,99,30.34,10.0,Calm,Calm,-,N/A,,Scattered Clouds,0,2013-09-17 09:55:00
5:15 AM,32.9,32.4,98,30.34,10.0,Calm,Calm,-,N/A,,Clear,0,2013-09-17 10:15:00
5:35 AM,31.6,31.1,98,30.34,10.0,Calm,Calm,-,N/A,,Clear,0,2013-09-17 10:35:00
5:55 AM,32.0,31.6,99,30.34,10.0,Calm,Calm,-,N/A,,Clear,0,2013-09-17 10:55:00
6:15 AM,31.6,30.9,97,30.33,10.0,Calm,Calm,-,N/A,,Clear,0,2013-09-17 11:15:00
6:35 AM,32.0,31.8,99,30.34,10.0,Calm,Calm,-,N/A,,Clear,0,2013-09-17 11:35:00
6:55 AM,32.0,31.6,99,30.34,10.0,Calm,Calm,-,N/A,,Clear,0,2013-09-17 11:55:00
7:15 AM,32.5,32.2,99,30.34,10.0,Calm,Calm,-,N/A,,Clear,0,2013-09-17 12:15:00
7:35 AM,35.2,34.5,97,30.34,10.0,Calm,Calm,-,N/A,,Clear,0,2013-09-17 12:35:00
7:55 AM,40.1,39.4,97,30.33,10.0,SSE,3.5,-,N/A,,Clear,150,2013-09-17 12:55:00
8:15 AM,45.0,43.3,94,30.33,10.0,South,3.5,-,N/A,,Scattered Clouds,170,2013-09-17 13:15:00
8:35 AM,46.8,44.6,92,30.33,10.0,SSE,3.5,-,N/A,,Mostly Cloudy,160,2013-09-17 13:35:00
8:55 AM,49.3,46.2,89,30.33,10.0,South,5.8,-,N/A,,Mostly Cloudy,170,2013-09-17 13:55:00
9:15 AM,50.0,46.4,87,30.33,10.0,SSE,6.9,-,N/A,,Scattered Clouds,160,2013-09-17 14:15:00
9:35 AM,51.6,47.1,85,30.33,10.0,South,9.2,-,N/A,,Scattered Clouds,180,2013-09-17 14:35:00
9:55 AM,52.9,47.7,82,30.32,10.0,South,9.2,-,N/A,,Mostly Cloudy,180,2013-09-17 14:55:00
10:15 AM,53.8,47.5,79,30.32,10.0,South,9.2,-,N/A,,Mostly Cloudy,190,2013-09-17 15:15:00
10:35 AM,55.2,48.0,77,30.31,10.0,South,12.7,-,N/A,,Mostly Cloudy,180,2013-09-17 15:35:00
10:55 AM,55.8,47.3,73,30.31,10.0,South,13.8,19.6,N/A,,Mostly Cloudy,190,2013-09-17 15:55:00
11:15 AM,58.1,47.3,67,30.30,10.0,SSW,12.7,-,N/A,,Mostly Cloudy,200,2013-09-17 16:15:00
11:35 AM,59.0,47.3,65,30.29,10.0,South,10.4,-,N/A,,Mostly Cloudy,180,2013-09-17 16:35:00
11:55 AM,58.5,47.1,66,30.28,10.0,SSE,12.7,-,N/A,,Scattered Clouds,160,2013-09-17 16:55:00
12:15 PM,59.4,47.1,64,30.28,10.0,South,12.7,18.4,N/A,,Scattered Clouds,190,2013-09-17 17:15:00
12:35 PM,59.9,47.5,64,30.27,10.0,South,10.4,17.3,N/A,,Scattered Clouds,170,2013-09-17 17:35:00
12:55 PM,60.6,47.5,62,30.27,10.0,SSW,12.7,18.4,N/A,,Scattered Clouds,200,2013-09-17 17:55:00
1:15 PM,60.6,46.8,60,30.26,10.0,SSE,13.8,17.3,N/A,,Scattered Clouds,160,2013-09-17 18:15:00
1:35 PM,61.7,47.3,59,30.25,10.0,SSE,12.7,20.7,N/A,,Clear,160,2013-09-17 18:35:00
1:55 PM,62.4,47.5,58,30.24,10.0,South,9.2,18.4,N/A,,Clear,170,2013-09-17 18:55:00
2:15 PM,62.6,47.5,58,30.22,10.0,South,11.5,-,N/A,,Clear,170,2013-09-17 19:15:00
2:35 PM,62.8,47.3,57,30.21,10.0,SSE,10.4,-,N/A,,Clear,160,2013-09-17 19:35:00
2:55 PM,63.7,48.0,57,30.20,10.0,South,11.5,-,N/A,,Clear,180,2013-09-17 19:55:00
3:15 PM,63.1,47.8,57,30.19,10.0,SSE,12.7,-,N/A,,Clear,160,2013-09-17 20:15:00
3:35 PM,63.1,46.9,55,30.19,10.0,SSE,15.0,20.7,N/A,,Clear,150,2013-09-17 20:35:00
3:55 PM,62.8,47.5,57,30.18,10.0,South,15.0,-,N/A,,Clear,170,2013-09-17 20:55:00
4:15 PM,62.2,47.7,59,30.17,10.0,SSE,11.5,-,N/A,,Clear,160,2013-09-17 21:15:00
4:35 PM,60.8,48.7,64,30.17,10.0,South,8.1,11.5,N/A,,Clear,170,2013-09-17 21:35:00
4:55 PM,61.2,48.9,64,30.17,10.0,SSE,15.0,-,N/A,,Clear,160,2013-09-17 21:55:00
5:15 PM,59.4,48.7,68,30.16,10.0,SSE,11.5,-,N/A,,Clear,160,2013-09-17 22:15:00
5:35 PM,59.4,50.0,71,30.16,10.0,SSE,9.2,-,N/A,,Clear,160,2013-09-17 22:35:00
5:55 PM,59.2,49.8,71,30.15,10.0,SSE,8.1,-,N/A,,Clear,150,2013-09-17 22:55:00
6:15 PM,58.3,50.0,74,30.15,10.0,SSE,8.1,-,N/A,,Clear,150,2013-09-17 23:15:00
6:35 PM,57.4,50.2,77,30.14,10.0,SSE,5.8,-,N/A,,Clear,150,2013-09-17 23:35:00
6:55 PM,55.6,50.2,82,30.14,10.0,SSE,6.9,-,N/A,,Clear,160,2013-09-17 23:55:00
7:15 PM,54.7,50.5,86,30.14,10.0,SSE,5.8,-,N/A,,Clear,150,2013-09-18 00:15:00
7:35 PM,54.5,50.9,88,30.13,10.0,SE,5.8,-,N/A,,Clear,140,2013-09-18 00:35:00
7:55 PM,54.1,50.9,89,30.13,10.0,South,4.6,-,N/A,,Scattered Clouds,170,2013-09-18 00:55:00
8:15 PM,54.5,50.9,88,30.13,10.0,SE,5.8,-,N/A,,Scattered Clouds,140,2013-09-18 01:15:00
8:35 PM,54.9,50.2,84,30.13,10.0,SSE,8.1,-,N/A,,Clear,150,2013-09-18 01:35:00
8:55 PM,55.4,50.4,83,30.13,10.0,SE,10.4,-,N/A,,Scattered Clouds,140,2013-09-18 01:55:00
9:15 PM,54.7,50.5,86,30.13,10.0,SE,9.2,-,N/A,,Mostly Cloudy,140,2013-09-18 02:15:00
9:35 PM,54.0,51.1,90,30.12,10.0,SE,9.2,16.1,N/A,,Scattered Clouds,140,2013-09-18 02:35:00
9:55 PM,54.0,51.4,91,30.13,10.0,SE,9.2,-,N/A,,Scattered Clouds,140,2013-09-18 02:55:00
10:15 PM,54.1,51.8,92,30.12,10.0,SSE,10.4,-,N/A,,Overcast,150,2013-09-18 03:15:00
10:35 PM,54.0,52.0,93,30.12,10.0,SSE,9.2,-,N/A,,Overcast,160,2013-09-18 03:35:00
10:55 PM,54.1,52.2,93,30.11,7.0,SSE,10.4,-,N/A,,Overcast,160,2013-09-18 03:55:00
11:15 PM,54.0,52.3,94,30.11,7.0,SSE,10.4,-,N/A,,Overcast,160,2013-09-18 04:15:00
11:35 PM,53.6,52.7,97,30.11,5.0,SSE,10.4,-,N/A,,Overcast,160,2013-09-18 04:35:00
11:55 PM,53.6,52.7,97,30.10,5.0,SSE,9.2,-,N/A,,Overcast,160,2013-09-18 04:55:00